Regional Weather Roundup
Issued by NWS Goodland, KS

Home | Current Version | Previous Version | Text Only | Print | Product List | Glossary Off
Versions: 1 2 3 4 5 6 7 8 9 10 11 12 13 14 15 16 17 18 19 20 21 22 23 24 25 26 27 28 29 30 31 32 33 34 35 36 37 38 39 40 41 42 43 44 45 46 47 48 49 50

000
ASUS43 KGLD 290508
RWRGLD

GOODLAND FORECAST AREA HOURLY WEATHER ROUNDUP
NATIONAL WEATHER SERVICE GOODLAND KS
1100 PM MDT THU JUL 28 2016

...OFFICIAL OBSERVATIONS...

CITY           SKY/WX    TMP DP  RH WIND       PRES   REMARKS
GOODLAND KS    CLOUDY    65  60  84 NE6       30.15S
HILL CITY KS   CLOUDY    69  66  90 NE7       30.09F
IMPERIAL NEB   CLEAR     63  60  90 SE6       30.13F
MCCOOK NEB     CLEAR     64  61  90 CALM      30.11S
AKRON CO       CLEAR     62  58  86 SE8       30.22R
BURLINGTON CO  CLOUDY    65  59  81 E9        30.18R
LIMON CO       RAIN      63  61  93 E7G22     30.25R FOG
$$

...UNOFFICIAL OBSERVATIONS...

CITY           SKY/WX    TMP DP  RH WIND       PRES   REMARKS
COLBY KS       CLEAR     66  64  94 NE7       30.14S
LENORA KS        N/A     67  32  27 MISG        N/A
NORTON KS      PTCLDY    68  64  88 CALM      30.10S
SHARON SPRINGS   N/A     66  62  88 CALM        N/A
KIT CARSON CO    N/A     66  61  83 CALM        N/A
YUMA CO          N/A     63  59  88 CALM        N/A
$$



USA.gov is the U.S. government's official web portal to all federal, state and local government web resources and services.